TimeEET,TemperatureF,Dew PointF,Humidity,Sea Level PressureIn,VisibilityMPH,Wind Direction,Wind SpeedMPH,Gust SpeedMPH,PrecipitationIn,Events,Conditions,WindDirDegrees,DateUTC
12:50 AM,21.2,21.2,100,30.15,6.2,West,5.8,-,N/A,,Overcast,280,2012-12-08 22:50:00
1:50 AM,15.8,14.0,93,30.15,3.7,Variable,2.3,-,N/A,,Overcast,0,2012-12-08 23:50:00
2:50 AM,10.4,8.6,92,30.15,2.5,Variable,1.2,-,N/A,,Overcast,0,2012-12-09 00:50:00
3:50 AM,8.6,6.8,92,30.15,1.9,Calm,Calm,-,N/A,,Mostly Cloudy,0,2012-12-09 01:50:00
4:50 AM,1.4,-0.4,92,30.15,1.2,Calm,Calm,-,N/A,,Mostly Cloudy,0,2012-12-09 02:50:00
5:50 AM,5.0,1.4,85,30.18,4.3,Variable,2.3,-,N/A,,Mostly Cloudy,0,2012-12-09 03:50:00
6:50 AM,1.4,-0.4,92,30.21,2.5,West,1.2,-,N/A,,Scattered Clouds,270,2012-12-09 04:50:00
7:50 AM,3.2,1.4,92,30.21,4.3,Calm,Calm,-,N/A,,Partly Cloudy,0,2012-12-09 05:50:00
8:00 AM,3,3,100,,4,Calm,Calm,,,,Mist,,2012-12-09 06:00:00
8:50 AM,3.2,-0.4,85,30.24,0.3,Calm,Calm,-,N/A,Fog,Light Freezing Fog,0,2012-12-09 06:50:00
9:50 AM,8.6,6.8,92,30.21,6.2,Calm,Calm,-,N/A,,Partly Cloudy,0,2012-12-09 07:50:00
10:50 AM,10.4,8.6,92,30.21,6.2,Calm,Calm,-,N/A,,Partly Cloudy,0,2012-12-09 08:50:00
11:50 AM,14.0,14.0,100,30.18,6.2,Variable,1.2,-,N/A,,Partly Cloudy,0,2012-12-09 09:50:00
12:50 PM,14.0,12.2,93,30.18,6.2,Calm,Calm,-,N/A,,Partly Cloudy,0,2012-12-09 10:50:00
2:00 PM,15,14,95,,6,Calm,Calm,,,,Partly Cloudy,,2012-12-09 12:00:00
2:50 PM,14.0,12.2,93,30.18,6.2,Calm,Calm,-,N/A,,Partly Cloudy,0,2012-12-09 12:50:00
3:50 PM,8.6,6.8,92,30.18,6.2,NW,1.2,-,N/A,,Partly Cloudy,310,2012-12-09 13:50:00
4:50 PM,6.8,5.0,92,30.18,-9999.0,NW,2.3,-,N/A,,Clear,320,2012-12-09 14:50:00
5:50 PM,-0.4,-2.2,92,30.21,0.2,WSW,1.2,-,N/A,Fog,Light Freezing Fog,250,2012-12-09 15:50:00
6:50 PM,-4.0,-7.6,85,30.21,0.2,Calm,Calm,-,N/A,Fog,Light Freezing Fog,0,2012-12-09 16:50:00
7:50 PM,-4.0,-7.6,85,30.21,0.2,Calm,Calm,-,N/A,Fog,Light Freezing Fog,0,2012-12-09 17:50:00
8:00 PM,-4,-5,92,,0,Calm,Calm,,,Fog,Partial Fog,,2012-12-09 18:00:00
8:50 PM,-7.6,-11.2,84,30.18,0.2,Calm,Calm,-,N/A,Fog,Light Freezing Fog,0,2012-12-09 18:50:00
9:50 PM,-5.8,-9.4,84,30.18,0.3,Calm,Calm,-,N/A,Fog,Light Freezing Fog,0,2012-12-09 19:50:00
10:50 PM,-9.4,-11.2,92,30.18,0.3,Calm,Calm,-,N/A,Fog,Light Freezing Fog,0,2012-12-09 20:50:00
11:50 PM,-7.6,-11.2,84,30.18,-9999.0,Calm,Calm,-,N/A,Fog,Light Freezing Fog,0,2012-12-09 21:50:00